Погода в Тоболово

Россия / Тюменская область     56°12′21″N   69°08′46″E
темп.,
°C
ветер,
м/с
пор.,
м/с
влажн.,
%
обл.,
%
осадки,
мм/ч
давл.,
гПа
погр.,
м
12 апреля, пн
пн1223:00+3юз5138599 0.0 1035277
02:00+1юз5137784 0.0 1034249
05:00+1юз5137783 0.0 1033236
08:00+4зюз5981100 0.0 1033272
11:00+8з5780100 0.0 1032404
14:00+6з3792100 0.1 1033256
17:00+9сз4886100 0.1 1033732
20:00+7сз3485100 0.0 103558
13 апреля, вт
вт1323:00+5ссв378882 0.0 1036123
02:00+3с22810 0.0 103819
05:00+2сз22760 0.0 103917
08:00+5сз36710 0.0 1040205
11:00+9зсз57494 0.0 1040918
14:00+11зсз56400 0.0 10391132
17:00+11зсз46435 0.0 10381032
20:00+7з35630 0.0 103862
14 апреля, ср
ср1423:00+6зюз3776100 0.0 1037116
02:00+4зюз497842 0.0 1036143
05:00+3зюз41083100 0.0 1035191
08:00+6зюз51376100 0.0 1034380
11:00+10зюз7126398 0.0 1031559
14:00+14з81057100 0.0 1029880
17:00+15з6106457 0.0 1028956
20:00+11зюз498226 0.0 1027165
15 апреля, чт
чт1523:00+9з48895 0.0 1026140
02:00+8з37907 0.0 1026100
05:00+8зюз359216 0.0 102583
08:00+11зюз478442 0.0 1024224
11:00+16з586632 0.0 1023713
14:00+18з684987 0.0 10211584
17:00+18з584920 0.0 10201535
20:00+13з34685 0.0 101953
16 апреля, пт
пт1623:00+11з358060 0.0 101857
02:00+9зюз34855 0.0 101746
05:00+8зюз34885 0.0 101643
08:00+11юз36745 0.0 1015203
11:00+16юз56505 0.0 1013701
14:00+18юз55405 0.0 10111299
17:00+18зюз4541100 0.0 10101592
20:00+13юз3457100 0.0 100957